CDT,Max TemperatureF,Mean TemperatureF,Min TemperatureF,Max Dew PointF,MeanDew PointF,Min DewpointF,Max Humidity, Mean Humidity, Min Humidity, Max Sea Level PressureIn, Mean Sea Level PressureIn, Min Sea Level PressureIn, Max VisibilityMiles, Mean VisibilityMiles, Min VisibilityMiles, Max Wind SpeedMPH, Mean Wind SpeedMPH, Max Gust SpeedMPH,PrecipitationIn, CloudCover, Events, WindDirDegrees
2013-4-1,30,22,13,18,14,9,92,75,58,30.42,30.37,30.31,,,,15,9,18,0.00,,,335
2013-4-2,32,23,13,19,16,11,96,75,53,30.43,30.40,30.35,,,,9,3,12,0.00,,,94
2013-4-3,52,44,35,39,28,16,92,72,52,30.40,30.12,29.86,,,,25,12,30,0.00,,,192
2013-4-4,37,31,25,31,27,22,85,78,70,30.31,30.22,30.07,,,,23,15,26,0.00,,,6
2013-4-5,37,29,20,31,25,17,92,87,81,30.31,30.09,29.76,,,,28,14,35,0.02,,,132
2013-4-6,43,38,32,37,32,30,92,86,79,29.88,29.73,29.64,,,,23,12,28,0.00,,,12
2013-4-7,37,34,31,35,31,28,100,91,82,29.94,29.87,29.78,,,,16,7,20,0.05,,,94
2013-4-8,34,28,22,34,30,18,100,91,81,30.25,29.95,29.77,,,,32,18,38,0.00,,,12
2013-4-9,26,22,17,18,15,8,84,73,62,30.36,30.31,30.20,,,,35,24,41,0.00,,,19
2013-4-10,36,30,24,27,22,18,85,71,56,30.35,30.18,30.03,,,,22,15,26,0.04,,,29
2013-4-11,32,30,27,30,28,26,100,93,85,30.01,29.86,29.81,,,,20,12,23,0.63,,,63
2013-4-12,32,29,25,27,25,24,100,86,72,29.97,29.90,29.84,,,,22,13,25,0.02,,,1
2013-4-13,33,28,23,26,24,21,92,79,66,29.97,29.94,29.90,,,,16,8,18,0.00,,,16
2013-4-14,32,30,28,31,28,25,100,93,85,29.91,29.64,29.39,,,,25,16,32,0.89,,,110
2013-4-15,36,33,29,31,28,25,100,85,70,30.09,29.71,29.38,,,,32,19,39,0.02,,,318
2013-4-16,35,30,25,28,25,21,92,84,75,30.40,30.27,30.08,,,,18,9,21,0.00,,,351
2013-4-17,32,31,29,30,29,28,100,93,85,30.41,30.27,30.13,,,,21,13,24,0.08,,,3
2013-4-18,33,30,27,30,27,21,100,86,72,30.09,29.95,29.88,,,,29,23,36,0.04,,,358
2013-4-19,33,27,20,23,19,15,84,72,59,30.16,29.97,29.83,,,,30,19,36,0.00,,,345
2013-4-20,32,22,12,29,18,10,92,73,53,30.30,30.25,30.17,,,,21,10,24,0.00,,,192
2013-4-21,40,35,30,35,31,27,100,91,82,30.25,30.11,30.02,,,,24,14,29,0.16,,,202
2013-4-22,32,29,26,27,25,21,92,82,72,30.39,30.33,30.25,,,,23,14,26,0.13,,,6
2013-4-23,39,30,20,26,21,16,84,67,50,30.38,30.25,30.08,,,,17,10,22,0.00,,,314
2013-4-24,44,36,28,34,27,21,96,75,53,30.13,30.00,29.89,,,,29,17,36,0.04,,,294
2013-4-25,47,36,24,38,29,19,86,74,61,30.20,30.09,29.91,,,,24,10,30,0.00,,,204
2013-4-26,66,48,30,45,36,31,96,64,31,30.12,30.03,29.90,,,,17,5,21,0.00,,,248
2013-4-27,74,58,42,47,39,32,70,52,33,30.10,29.92,29.72,,,,28,16,40,0.00,,,219
2013-4-28,66,53,39,47,42,35,82,63,44,29.87,29.70,29.60,,,,30,16,40,0.00,,,310
2013-4-29,70,52,33,47,38,30,89,61,32,29.89,29.69,29.36,,,,20,10,25,0.00,,,178
2013-4-30,62,50,37,48,37,28,86,59,32,30.07,29.64,29.25,,,,32,19,41,0.00,,,312